Temp
61 61 61 59 58 59 58 57 57 57 57 56 58 55 56 56 57 56 56 56 57 57 57 57 57 58 59 58 58 59 58 58 57 56 57 57 56 57 57 56 56 57
60 61 62 60 59 58 57 57 57 58 56 55 56 55 55 56 57 56 57 56 56 55 55 56 56 56 57 58 58 58 56 57 56 58 56 55 55 56 57 56 57 55
61 61 62 61 59 57 56 55 56 56 57 55 55 56 57 56 55 55 55 56 56 55 55 55 55 56 56 56 57 58 57 55 55 54 55 54 53 55 54 54 53 54
60 61 61 60 59 58 56 57 55 56 56 58 56 57 57 57 55 55 57 58 55 55 54 54 54 55 55 55 56 55 55 54 54 54 54 53 53 54 53 54 53 53
61 60 60 59 59 59 57 57 56 55 56 57 56 56 58 56 55 55 54 54 55 54 54 54 54 54 54 54 55 54 54 54 53 54 55 53 53 55 54 55 53 53
60 61 61 60 59 59 58 56 56 56 56 56 56 57 55 55 55 55 55 54 54 55 54 53 53 54 54 53 53 53 53 55 53 54 55 55 53 53 56 54 53 53
60 60 58 58 58 58 57 56 56 57 57 57 55 55 54 55 55 54 53 54 54 54 53 53 53 53 53 53 53 52 52 52 53 54 55 52 53 53 53 53 54 54
60 59 59 58 58 57 57 57 57 57 56 55 55 53 54 55 53 53 52 54 54 52 52 53 53 52 52 52 53 52 52 54 54 53 53 51 52 52 53 54 52 55
59 59 59 58 58 57 57 57 57 56 56 56 55 54 53 54 54 53 53 52 52 52 52 52 53 52 51 52 52 52 52 53 52 52 52 52 53 52 53 51 52 53
58 58 58 58 58 57 57 56 56 55 56 56 55 53 55 54 53 52 53 52 52 51 52 52 52 52 52 51 52 51 52 52 52 52 52 52 52 51 52 52 51 51
57 58 58 57 56 56 56 56 56 56 56 55 53 54 53 53 53 52 52 52 54 52 52 52 51 51 52 52 52 52 51 51 51 52 52 52 52 52 55 51 52 52
57 57 57 57 57 56 56 56 56 56 56 55 54 53 52 53 53 53 54 53 52 51 52 51 50 50 51 51 51 51 51 51 51 51 52 52 52 53 53 52 52 51
57 57 57 57 57 57 57 57 57 57 57 57 55 53 52 52 53 53 53 53 53 52 52 52 51 51 51 50 51 51 51 52 51 52 52 51 52 51 52 51 52 51
57 57 57 57 57 58 58 57 57 56 56 55 55 53 52 52 52 53 52 53 53 53 53 52 51 51 50 50 51 52 52 51 51 51 52 51 52 51 51 51 51 51
56 57 57 57 57 58 58 58 58 57 56 55 55 54 54 52 52 52 53 53 53 53 53 53 53 53 53 51 51 51 51 52 52 53 53 52 52 51 51 51 51 51
56 56 56 55 56 57 58 58 57 56 56 56 55 54 54 54 53 52 52 53 53 52 53 53 53 54 55 54 53 53 51 53 53 52 52 52 53 52 52 52 52 50
56 56 56 56 55 56 56 55 55 54 53 53 53 53 54 54 54 53 52 52 54 53 52 53 53 55 53 49 48 51 53 51 52 51 51 51 52 52 54 54 52 51
55 56 55 55 56 55 55 54 54 54 54 54 54 54 53 53 55 53 53 52 52 52 52 53 53 54 50 48 46 46 51 54 52 52 52 51 51 52 54 52 53 53
54 53 53 53 53 54 54 54 54 54 54 54 53 52 53 54 52 52 51 50 52 52 52 52 52 52 49 48 46 45 44 49 55 54 54 52 52 53 53 53 53 53
54 53 53 52 53 53 52 51 51 51 51 51 51 52 52 51 51 52 51 51 51 50 50 49 49 48 47 48 46 44 44 45 51 52 53 53 54 54 54 53 53 53
51 51 50 51 52 52 51 50 50 49 49 48 48 49 50 50 50 50 51 51 51 51 50 51 51 48 44 44 44 44 43 44 49 50 51 52 53 53 54 54 54 55
48 48 47 48 49 49 49 47 47 46 46 46 47 47 47 48 48 49 50 51 51 50 50 51 52 47 42 41 41 42 43 47 49 50 51 52 53 53 53 54 54 55
48 48 47 47 48 47 46 46 46 47 45 46 45 45 45 46 46 46 47 48 50 51 50 50 51 48 44 43 42 40 44 49 49 51 50 51 52 53 52 53 54 54
47 47 47 47 47 46 45 45 45 45 45 45 44 44 44 44 44 45 46 46 47 48 48 48 49 49 44 44 43 41 44 49 50 50 50 51 51 52 52 52 53 54
47 46 46 46 46 45 45 45 44 44 43 43 44 43 43 43 46 45 44 45 45 46 50 48 47 47 45 43 43 43 43 46 48 49 50 51 50 50 51 51 51 52
47 47 46 45 44 44 44 43 45 45 44 44 44 45 44 44 45 45 44 44 44 44 45 45 45 46 46 43 43 43 43 45 47 48 49 50 50 51 52 51 49 48
MSLP
1015.95 1016.15 1016.39 1016.71 1016.99 1017.03 1017.15 1017.39 1017.59 1017.71 1017.91 1017.95 1017.99 1018.19 1018.19 1018.35 1018.47 1018.47 1018.51 1018.55 1018.59 1018.71 1018.83 1018.95 1019.03 1019.19 1019.35 1019.47 1019.59 1019.75 1019.95 1020.11 1020.19 1020.31 1020.35 1020.43 1020.55 1020.63 1020.79 1020.87 1020.99 1020.99
1016.15 1016.27 1016.47 1016.71 1016.91 1017.03 1017.19 1017.23 1017.47 1017.59 1017.87 1017.99 1018.07 1018.19 1018.31 1018.35 1018.47 1018.51 1018.51 1018.63 1018.75 1018.83 1018.95 1019.11 1019.23 1019.35 1019.47 1019.63 1019.75 1019.87 1020.07 1020.19 1020.27 1020.35 1020.35 1020.43 1020.47 1020.55 1020.63 1020.71 1020.79 1020.99
1016.23 1016.35 1016.51 1016.71 1016.91 1017.11 1017.23 1017.39 1017.51 1017.75 1017.91 1018.07 1018.23 1018.27 1018.35 1018.51 1018.55 1018.71 1018.71 1018.75 1018.87 1018.99 1019.03 1019.15 1019.27 1019.43 1019.59 1019.75 1019.87 1019.95 1019.99 1020.03 1020.11 1020.27 1020.27 1020.27 1020.43 1020.47 1020.59 1020.75 1020.87 1020.91
1016.39 1016.39 1016.59 1016.79 1016.91 1017.07 1017.31 1017.47 1017.75 1017.95 1018.11 1018.19 1018.31 1018.43 1018.47 1018.63 1018.75 1018.79 1018.87 1018.91 1018.99 1019.15 1019.27 1019.27 1019.35 1019.51 1019.63 1019.79 1019.87 1019.99 1020.03 1020.07 1020.15 1020.23 1020.27 1020.39 1020.43 1020.43 1020.59 1020.71 1020.79 1020.91
1016.27 1016.47 1016.59 1016.71 1016.87 1017.03 1017.31 1017.55 1017.83 1018.11 1018.19 1018.27 1018.43 1018.47 1018.47 1018.63 1018.75 1018.83 1018.91 1019.03 1019.07 1019.27 1019.39 1019.47 1019.55 1019.63 1019.75 1019.87 1019.95 1020.11 1020.23 1020.19 1020.31 1020.23 1020.23 1020.39 1020.55 1020.47 1020.59 1020.59 1020.67 1020.83
1016.23 1016.35 1016.51 1016.63 1016.83 1017.03 1017.35 1017.59 1017.83 1018.03 1018.19 1018.27 1018.35 1018.43 1018.51 1018.59 1018.71 1018.79 1018.91 1018.99 1019.15 1019.27 1019.47 1019.63 1019.71 1019.83 1019.91 1019.95 1020.07 1020.11 1020.23 1020.27 1020.31 1020.23 1020.27 1020.39 1020.55 1020.63 1020.59 1020.63 1020.75 1020.87
1016.23 1016.39 1016.51 1016.67 1016.91 1017.11 1017.35 1017.63 1017.83 1017.99 1018.07 1018.11 1018.31 1018.39 1018.55 1018.63 1018.71 1018.79 1018.87 1018.99 1019.15 1019.31 1019.47 1019.63 1019.75 1019.91 1020.07 1020.07 1020.15 1020.23 1020.35 1020.35 1020.39 1020.35 1020.35 1020.59 1020.59 1020.71 1020.79 1020.79 1020.67 1020.75
1016.19 1016.35 1016.47 1016.75 1016.95 1017.27 1017.43 1017.67 1017.83 1017.95 1018.07 1018.23 1018.23 1018.51 1018.59 1018.63 1018.79 1018.87 1018.95 1019.03 1019.19 1019.43 1019.59 1019.75 1019.83 1019.91 1020.11 1020.11 1020.15 1020.31 1020.43 1020.55 1020.55 1020.55 1020.55 1020.71 1020.79 1020.75 1020.83 1020.83 1020.71 1020.75
1016.47 1016.59 1016.79 1017.03 1017.27 1017.51 1017.63 1017.75 1017.87 1018.03 1018.11 1018.15 1018.35 1018.55 1018.75 1018.79 1018.87 1018.99 1019.07 1019.19 1019.35 1019.55 1019.71 1019.83 1019.95 1019.99 1020.15 1020.15 1020.23 1020.27 1020.39 1020.59 1020.75 1020.71 1020.67 1020.75 1020.83 1020.87 1020.95 1021.03 1021.03 1021.03
1016.71 1016.91 1017.15 1017.43 1017.59 1017.79 1017.83 1017.91 1018.03 1018.15 1018.31 1018.35 1018.51 1018.71 1018.79 1019.07 1019.19 1019.15 1019.23 1019.35 1019.47 1019.67 1019.83 1019.91 1020.03 1020.15 1020.19 1020.31 1020.31 1020.31 1020.39 1020.55 1020.71 1020.87 1020.91 1020.87 1020.87 1021.03 1021.19 1021.23 1021.15 1021.27
1016.87 1016.99 1017.19 1017.55 1017.83 1017.95 1018.11 1018.23 1018.31 1018.39 1018.47 1018.59 1018.71 1018.83 1019.03 1019.15 1019.35 1019.43 1019.39 1019.47 1019.55 1019.71 1019.83 1019.95 1020.03 1020.11 1020.15 1020.27 1020.43 1020.51 1020.47 1020.51 1020.67 1020.87 1021.03 1021.15 1021.23 1021.27 1021.31 1021.31 1021.39 1021.31
1016.99 1017.07 1017.19 1017.35 1017.51 1017.67 1017.79 1017.95 1018.11 1018.31 1018.51 1018.67 1018.79 1018.91 1019.19 1019.35 1019.39 1019.51 1019.55 1019.55 1019.67 1019.83 1019.83 1019.91 1020.07 1020.15 1020.19 1020.23 1020.31 1020.43 1020.55 1020.67 1020.75 1020.91 1021.03 1021.15 1021.27 1021.39 1021.31 1021.39 1021.39 1021.47
1017.23 1017.23 1017.23 1017.27 1017.31 1017.35 1017.51 1017.79 1017.99 1018.11 1018.35 1018.55 1018.75 1018.87 1019.15 1019.39 1019.55 1019.63 1019.71 1019.75 1019.79 1019.95 1019.99 1019.99 1020.07 1020.15 1020.19 1020.27 1020.31 1020.39 1020.47 1020.59 1020.75 1020.87 1020.99 1021.11 1021.23 1021.27 1021.31 1021.35 1021.43 1021.47
1017.23 1017.39 1017.39 1017.39 1017.43 1017.51 1017.79 1017.91 1018.07 1018.27 1018.39 1018.59 1018.75 1018.91 1019.19 1019.43 1019.55 1019.63 1019.71 1019.83 1019.91 1019.91 1019.99 1020.11 1020.11 1020.11 1020.19 1020.23 1020.31 1020.35 1020.47 1020.55 1020.67 1020.79 1020.95 1021.07 1021.15 1021.23 1021.35 1021.35 1021.35 1021.39
1017.55 1017.71 1017.71 1017.67 1017.83 1017.87 1018.11 1018.27 1018.51 1018.67 1018.71 1018.83 1018.87 1018.95 1019.19 1019.47 1019.63 1019.71 1019.71 1019.79 1019.95 1020.07 1020.11 1020.23 1020.19 1020.11 1020.19 1020.27 1020.35 1020.47 1020.55 1020.55 1020.67 1020.79 1020.95 1021.03 1021.11 1021.19 1021.27 1021.31 1021.35 1021.35
1018.07 1018.03 1017.95 1017.95 1018.11 1018.35 1018.43 1018.47 1018.63 1018.95 1019.07 1018.99 1018.95 1018.99 1019.11 1019.39 1019.63 1019.75 1019.79 1019.75 1019.83 1019.95 1020.11 1020.23 1020.19 1020.19 1020.19 1020.23 1020.35 1020.35 1020.51 1020.67 1020.83 1020.95 1021.03 1021.07 1021.19 1021.19 1021.23 1021.27 1021.27 1021.31
1018.07 1018.19 1018.15 1018.19 1018.39 1018.59 1018.87 1019.03 1019.19 1019.31 1019.39 1019.35 1019.27 1019.27 1019.27 1019.27 1019.43 1019.63 1019.75 1019.75 1019.75 1019.87 1019.95 1020.11 1020.23 1020.23 1020.19 1020.31 1020.35 1020.47 1020.55 1020.71 1020.87 1021.03 1021.15 1021.23 1021.27 1021.27 1021.19 1021.19 1021.23 1021.39
1018.51 1018.47 1018.55 1018.71 1018.83 1019.15 1019.35 1019.79 1019.87 1019.79 1019.79 1019.75 1019.59 1019.51 1019.51 1019.47 1019.51 1019.51 1019.63 1019.75 1019.83 1019.91 1019.95 1020.03 1020.11 1020.07 1020.15 1020.31 1020.43 1020.55 1020.55 1020.63 1020.87 1020.99 1021.19 1021.31 1021.35 1021.35 1021.35 1021.39 1021.35 1021.35
1018.91 1019.03 1019.19 1019.51 1019.83 1019.87 1019.91 1019.67 1019.71 1019.83 1019.75 1019.67 1019.75 1019.83 1019.59 1019.59 1019.79 1019.71 1019.75 1019.75 1019.75 1019.83 1019.95 1020.15 1020.23 1020.23 1020.31 1020.39 1020.51 1020.63 1020.83 1020.87 1020.75 1020.79 1020.95 1021.11 1021.23 1021.23 1021.31 1021.31 1021.35 1021.39
1019.43 1019.55 1019.83 1020.03 1020.11 1020.27 1020.43 1020.43 1020.47 1020.43 1020.35 1020.35 1020.31 1020.11 1019.91 1019.87 1019.95 1019.95 1019.95 1019.91 1019.95 1019.99 1020.07 1020.19 1020.27 1020.43 1020.47 1020.47 1020.51 1020.67 1020.87 1021.15 1021.15 1021.03 1021.03 1020.99 1021.03 1021.07 1021.15 1021.23 1021.23 1021.27
1020.51 1020.55 1020.59 1020.47 1020.47 1020.55 1020.67 1020.79 1020.79 1020.87 1020.79 1020.91 1020.91 1020.75 1020.55 1020.51 1020.59 1020.39 1020.31 1020.27 1020.19 1020.19 1020.19 1020.19 1020.23 1020.31 1020.43 1020.47 1020.51 1020.59 1020.67 1020.99 1021.11 1021.23 1021.15 1021.07 1021.11 1021.15 1021.07 1020.95 1020.99 1021.03
1021.23 1021.27 1021.27 1021.11 1021.07 1021.03 1021.07 1021.31 1021.31 1021.39 1021.35 1021.39 1021.19 1021.07 1021.03 1020.95 1020.87 1020.83 1020.71 1020.55 1020.39 1020.31 1020.27 1020.31 1020.59 1020.95 1020.99 1020.91 1020.87 1020.75 1020.87 1020.99 1021.03 1021.03 1020.95 1020.95 1020.95 1020.95 1021.03 1021.03 1020.95 1020.87
1021.63 1021.67 1021.67 1021.75 1021.63 1021.51 1021.67 1021.75 1021.75 1021.71 1021.67 1021.63 1021.43 1021.51 1021.43 1021.39 1021.31 1021.23 1021.11 1020.87 1020.59 1020.51 1020.59 1020.67 1020.59 1020.71 1021.03 1021.23 1021.19 1021.27 1021.35 1021.23 1021.07 1020.95 1020.95 1020.87 1020.71 1020.67 1020.79 1020.83 1020.87 1020.83
1022.27 1022.23 1022.19 1022.15 1021.99 1022.03 1022.15 1022.19 1022.15 1022.11 1022.11 1022.11 1021.99 1021.95 1021.83 1021.83 1021.63 1021.39 1021.31 1021.31 1021.11 1021.03 1021.15 1021.07 1021.03 1020.95 1021.03 1021.15 1021.39 1021.71 1021.67 1021.31 1021.11 1021.11 1020.91 1020.79 1020.59 1020.55 1020.55 1020.55 1020.55 1020.63
1022.75 1022.83 1022.87 1022.91 1022.75 1022.71 1022.59 1022.55 1022.55 1022.59 1022.59 1022.47 1022.35 1022.27 1022.19 1022.03 1021.83 1021.63 1021.55 1021.51 1021.51 1021.47 1021.35 1021.39 1021.51 1021.39 1021.31 1021.35 1021.43 1021.59 1021.75 1021.71 1021.55 1021.39 1021.23 1020.95 1020.87 1020.71 1020.59 1020.59 1020.47 1020.43
1023.03 1023.15 1023.19 1023.35 1023.35 1023.35 1023.27 1023.19 1023.03 1022.83 1022.71 1022.55 1022.39 1022.23 1022.07 1022.03 1022.03 1022.03 1021.99 1021.99 1021.91 1021.79 1021.71 1021.71 1021.67 1021.59 1021.55 1021.55 1021.55 1021.55 1021.59 1021.63 1021.67 1021.63 1021.31 1020.91 1020.63 1020.55 1020.39 1020.31 1020.43 1020.47
Wind_Speed
6 5 6 5 4 5 6 6 5 6 4 4 5 3 4 2 2 3 3 3 3 4 3 3 3 3 3 3 3 3 3 4 3 2 3 4 5 6 6 5 4 5
5 5 5 5 5 4 4 5 5 6 5 3 3 4 2 3 2 3 4 4 3 3 3 3 3 3 4 4 4 4 3 4 4 2 5 4 4 5 5 6 5 4
5 6 6 5 5 4 4 4 4 4 4 3 3 3 3 1 3 2 3 4 4 3 3 3 4 3 4 4 4 4 4 3 3 3 4 4 4 5 4 4 4 5
4 5 6 5 5 5 4 5 4 4 4 5 3 3 3 3 3 3 3 4 5 3 3 3 3 3 3 4 4 4 3 3 3 4 4 3 3 4 5 4 4 4
6 6 5 6 5 5 5 5 4 4 4 4 4 4 4 4 3 3 3 3 4 4 3 3 3 3 3 3 4 5 3 4 3 4 5 4 2 4 4 4 4 4
5 6 6 6 6 6 6 5 5 5 5 4 5 4 4 4 4 4 4 4 3 5 4 3 4 3 3 3 3 3 3 4 3 4 5 5 3 2 3 4 5 4
8 6 6 6 6 5 6 5 5 4 5 5 4 4 4 4 4 4 4 4 4 4 4 4 4 4 2 3 3 3 2 3 3 3 5 3 4 3 1 2 4 5
7 5 7 6 6 5 5 5 5 5 4 4 4 3 4 4 4 3 3 4 4 4 3 3 3 4 3 3 4 3 3 2 3 4 4 3 3 4 2 1 4 6
4 5 5 5 5 4 5 5 4 4 4 5 4 4 2 3 4 3 4 4 4 3 3 3 2 4 3 3 3 4 4 2 2 3 4 4 3 3 2 2 3 4
6 5 5 3 4 3 4 4 3 3 2 3 3 3 3 2 2 3 3 4 4 3 3 2 2 2 3 2 3 4 4 3 1 1 1 3 4 3 2 2 3 4
5 6 7 6 5 4 3 2 2 2 2 3 3 2 2 3 2 1 3 3 4 4 3 3 3 3 3 2 1 1 2 3 2 1 0 0 1 2 3 3 2 4
4 5 7 7 7 5 5 4 3 2 1 1 2 3 2 1 2 2 2 3 3 3 3 3 3 3 3 3 3 2 1 2 2 1 0 1 1 1 2 2 3 3
5 5 6 7 7 7 6 5 4 4 3 4 3 3 4 3 1 2 2 2 2 3 3 3 3 3 3 3 3 3 4 3 3 1 1 2 2 3 3 2 2 3
6 5 5 5 5 4 3 3 3 3 3 3 3 3 3 4 4 4 4 2 3 3 3 2 3 3 3 3 4 4 4 4 4 4 3 3 3 3 3 3 4 4
3 3 2 3 2 3 3 2 0 1 1 2 3 2 2 3 2 3 3 4 3 3 2 1 2 3 3 3 3 3 3 4 4 4 4 4 4 4 4 4 3 4
4 3 4 3 2 1 1 1 1 1 1 1 2 3 3 2 2 2 3 4 4 4 2 2 3 2 3 6 5 4 4 3 3 4 4 4 4 5 4 4 4 3
6 4 5 5 5 4 4 5 4 3 2 2 3 2 3 2 2 2 3 3 4 4 4 4 3 3 5 6 7 6 4 4 4 4 3 4 4 5 6 5 5 3
6 6 7 7 7 7 6 5 4 4 5 4 5 6 5 2 0 2 2 1 2 3 4 4 4 6 8 7 7 8 7 5 4 4 4 4 4 5 5 4 5 5
9 9 9 9 7 7 4 4 3 4 5 6 5 3 4 7 5 3 3 2 2 2 3 2 3 5 6 6 7 8 9 5 4 5 6 6 5 6 5 5 6 5
10 10 10 9 9 9 8 8 8 8 7 7 6 5 6 5 5 4 3 3 3 3 1 1 2 4 4 5 7 7 7 4 4 3 4 4 5 6 6 6 7 7
10 11 10 9 9 9 9 10 9 8 9 7 7 7 8 7 6 6 5 5 4 3 3 3 3 2 4 5 6 7 8 6 4 4 4 4 4 4 5 7 8 8
11 11 10 11 10 10 10 9 8 7 7 6 6 7 6 6 7 6 7 7 5 4 3 4 3 3 7 9 9 8 4 3 4 5 6 6 6 5 5 6 6 7
10 10 9 9 8 10 9 8 7 7 7 6 7 7 7 7 6 5 5 6 7 7 7 5 6 6 5 4 6 7 5 3 3 4 5 6 7 6 6 6 6 7
11 10 10 10 10 10 8 7 6 5 6 4 6 5 6 5 4 6 6 6 7 7 7 6 7 10 14 14 12 7 3 5 5 4 5 6 7 7 7 7 8 11
9 9 10 10 10 9 8 8 7 6 4 4 4 4 3 3 5 6 7 7 7 6 10 9 6 9 13 14 14 12 5 3 5 5 6 7 6 7 6 6 6 8
8 8 9 8 8 7 8 8 6 6 7 6 6 6 6 6 6 7 7 7 7 8 8 7 7 7 8 13 13 13 11 5 4 4 6 8 8 8 8 6 6 5
Wind_Direction
133 126 125 115 122 131 135 127 125 122 122 126 126 138 132 141 117 106 95 89 105 112 107 105 112 119 120 127 140 141 158 177 177 162 165 153 155 154 160 164 170 166
123 116 110 108 102 99 102 119 124 122 126 114 114 121 96 101 91 102 107 95 88 100 105 103 101 112 120 124 132 131 133 148 132 148 145 156 166 157 165 172 174 151
121 116 115 118 121 113 107 93 105 113 121 124 108 106 115 95 107 84 100 110 107 101 91 96 97 101 115 125 131 134 140 123 117 123 134 154 152 153 167 159 152 168
109 116 120 117 124 124 112 104 91 100 108 114 129 137 124 114 103 101 83 93 109 101 86 85 101 101 108 115 116 114 129 127 148 137 121 111 136 141 146 144 147 142
135 125 128 127 123 120 119 119 126 131 138 139 128 127 123 124 110 98 96 89 106 108 95 94 90 102 105 101 114 120 123 126 143 135 126 117 115 128 147 135 130 134
136 140 143 137 136 133 132 143 150 150 146 141 151 132 134 134 124 120 118 109 101 111 103 100 105 94 102 105 94 105 127 123 137 125 120 125 107 83 118 123 132 129
149 145 135 131 130 138 141 151 155 156 161 154 129 140 142 133 129 127 122 119 117 118 126 133 126 110 98 111 104 95 68 110 121 124 119 106 107 87 76 140 127 113
144 135 134 137 139 143 144 152 156 161 155 136 145 152 141 137 127 124 114 118 119 119 119 125 127 123 120 117 120 102 84 68 112 110 105 100 102 123 124 106 116 115
89 104 119 130 132 142 148 154 155 152 151 142 141 139 114 126 137 124 116 107 102 115 122 123 130 128 116 119 123 129 123 79 65 112 129 130 131 150 141 103 96 115
88 86 82 85 112 121 142 143 137 132 117 120 121 115 123 84 92 121 112 110 109 106 118 124 119 114 104 105 138 142 136 126 93 94 125 154 155 156 138 128 138 114
96 99 100 93 87 76 64 48 53 70 78 108 107 105 99 105 85 78 111 127 137 144 143 156 167 143 129 122 121 137 143 137 129 105 86 91 149 147 149 151 157 155
114 119 122 128 128 123 132 129 109 91 107 110 131 135 102 127 140 150 170 181 172 165 171 172 161 152 163 171 167 164 141 128 120 121 140 206 209 211 171 171 169 150
169 160 149 144 145 153 153 135 138 146 160 173 157 148 138 156 169 193 231 195 205 165 186 182 171 165 173 176 177 175 176 164 160 168 212 220 214 216 208 204 187 160
173 164 152 143 144 127 112 123 129 151 180 154 140 149 150 161 177 198 226 211 223 206 207 189 169 170 184 189 192 184 177 187 177 190 211 233 236 231 222 219 207 186
116 98 89 103 99 120 140 116 61 246 179 139 150 174 174 184 191 193 203 231 258 261 253 205 184 196 192 184 196 205 192 190 195 198 205 213 226 238 241 239 236 214
67 78 99 100 101 116 109 114 64 341 319 232 207 206 211 176 154 181 203 207 217 234 237 255 246 225 221 200 188 185 189 200 200 212 208 211 213 228 252 251 248 244
96 82 74 73 68 57 45 46 43 42 47 35 23 349 299 260 135 163 230 209 201 205 211 228 244 244 229 222 218 200 172 179 187 213 212 219 222 216 230 244 257 259
80 74 66 59 67 66 67 45 44 54 51 38 35 30 8 19 81 155 161 212 224 211 210 222 232 241 238 223 233 232 205 184 187 195 199 215 227 231 236 242 251 257
66 66 67 61 51 55 67 91 61 43 28 27 21 13 39 45 23 25 42 102 139 204 261 280 268 276 280 273 245 242 254 257 219 199 195 210 214 219 223 227 231 238
66 72 69 66 68 63 58 60 53 40 28 20 14 22 42 34 10 4 360 28 67 95 75 342 305 302 289 274 271 261 251 244 283 289 263 239 218 211 211 213 213 214
50 53 55 62 63 64 62 53 53 42 34 21 25 29 33 28 10 354 352 343 355 13 7 329 287 285 275 265 263 261 250 211 234 267 286 273 258 248 230 216 211 211
52 51 45 43 48 53 54 50 45 43 37 17 30 29 25 25 18 23 14 359 346 357 7 334 328 5 335 321 313 293 282 239 236 230 236 251 262 250 243 241 236 219
40 48 46 46 44 51 48 44 40 34 30 24 39 30 27 23 17 11 7 9 4 10 11 345 332 337 357 337 306 322 344 277 243 232 238 246 246 245 242 243 241 237
40 38 40 38 40 41 38 35 33 34 31 22 44 31 27 10 8 16 15 16 14 9 7 357 342 343 353 356 357 354 297 283 276 276 268 251 254 250 241 235 232 234
48 46 43 37 39 33 31 28 23 22 6 19 33 39 35 16 24 25 16 17 14 10 11 19 2 354 358 1 2 3 357 299 302 303 289 272 262 266 262 251 253 234
44 44 46 41 33 32 34 29 12 19 16 17 18 24 25 27 29 32 30 15 6 12 9 10 6 355 355 354 356 359 3 351 320 304 285 283 283 277 273 261 241 247